KLM135 TNCM-EHAM

Flight info

Callsign KLM135
Flight time N/A
Altitude 37000
Route MODOR2 MNOLO M576 OBIKE DCT 20N060W 25N055W 30N050W 35N045W 40N040W/M085F390 46N030W 49N020W DCT SOMAX DCT ATSUR DCT LESLU/N0487F390 DCT BAPHU DCT GAJIT DCT ENHAQ M197 REDFA
Aircraft A35K/H-SDE2E3GHIJ3J4J5LM1ORWXY/LB1D1

Departure

Time N/A
Airport Princess Juliana International Airport (TNCM)

Arrival

Time 2026-05-05 17:59
Airport Amsterdam Airport Schiphol (EHAM)
Time Latitude Longitude Altitude Speed Heading
2026-05-05 17:30 51.76419 0.34099 36964 ft 496 kts 77°
2026-05-05 17:31 51.78070 0.44940 36959 ft 496 kts 77°
2026-05-05 17:31 51.79707 0.55761 36951 ft 495 kts 78°
2026-05-05 17:32 51.81328 0.66552 36938 ft 496 kts 78°
2026-05-05 17:32 51.82989 0.77412 36937 ft 498 kts 77°
2026-05-05 17:33 51.84736 0.88245 36935 ft 498 kts 75°
2026-05-05 17:33 51.86733 0.98960 36932 ft 498 kts 75°
2026-05-05 17:34 51.88746 1.09690 36941 ft 497 kts 75°
2026-05-05 17:34 51.90701 1.20415 36939 ft 497 kts 75°
2026-05-05 17:35 51.92631 1.31204 36933 ft 497 kts 75°
2026-05-05 17:35 51.94529 1.41901 36944 ft 497 kts 76°
2026-05-05 17:36 51.96431 1.52670 36939 ft 497 kts 76°
2026-05-05 17:36 51.98327 1.63468 36946 ft 497 kts 76°
2026-05-05 17:37 52.00164 1.74272 36943 ft 496 kts 78°
2026-05-05 17:37 52.01815 1.85127 36938 ft 496 kts 78°
2026-05-05 17:38 52.03481 1.96011 36940 ft 496 kts 78°
2026-05-05 17:38 52.05150 2.06919 36942 ft 497 kts 78°
2026-05-05 17:38 52.05974 2.12312 36613 ft 489 kts 78°
2026-05-05 17:39 52.06783 2.17621 35688 ft 492 kts 78°
2026-05-05 17:39 52.07607 2.23061 34694 ft 497 kts 78°
2026-05-05 17:39 52.08434 2.28536 33770 ft 499 kts 78°
2026-05-05 17:39 52.09259 2.34011 32728 ft 500 kts 78°
2026-05-05 17:40 52.10085 2.39517 31664 ft 503 kts 78°
2026-05-05 17:40 52.10921 2.45066 30594 ft 505 kts 78°
2026-05-05 17:40 52.12114 2.50474 29367 ft 513 kts 65°
2026-05-05 17:40 52.13854 2.55533 28362 ft 513 kts 60°
2026-05-05 17:41 52.15675 2.60499 27544 ft 508 kts 60°
2026-05-05 17:41 52.17479 2.65426 26760 ft 503 kts 60°
2026-05-05 17:41 52.19245 2.70281 26051 ft 497 kts 61°
2026-05-05 17:41 52.20996 2.75120 25341 ft 492 kts 61°
2026-05-05 17:42 52.22715 2.79888 24664 ft 486 kts 61°
2026-05-05 17:42 52.24403 2.84580 23703 ft 469 kts 61°
2026-05-05 17:42 52.26039 2.89142 22081 ft 463 kts 60°
2026-05-05 17:42 52.27651 2.93649 20558 ft 456 kts 60°
2026-05-05 17:43 52.29234 2.98086 19154 ft 447 kts 60°
2026-05-05 17:43 52.30760 3.02371 17957 ft 435 kts 60°
2026-05-05 17:43 52.32249 3.06554 17516 ft 423 kts 60°
2026-05-05 17:43 52.33724 3.10705 17188 ft 422 kts 60°
2026-05-05 17:44 52.35203 3.14876 16813 ft 423 kts 60°
2026-05-05 17:44 52.36672 3.19024 16427 ft 419 kts 60°
2026-05-05 17:44 52.38131 3.23153 16058 ft 417 kts 60°
2026-05-05 17:44 52.39573 3.27237 15692 ft 414 kts 60°
2026-05-05 17:45 52.40947 3.31360 15435 ft 407 kts 64°
2026-05-05 17:45 52.41871 3.35692 14909 ft 401 kts 78°
2026-05-05 17:45 52.42048 3.40281 14821 ft 407 kts 95°
2026-05-05 17:45 52.41495 3.44829 14564 ft 408 kts 106°
2026-05-05 17:46 52.40699 3.49193 14093 ft 387 kts 107°
2026-05-05 17:46 52.39924 3.53249 13650 ft 361 kts 107°
2026-05-05 17:46 52.39198 3.57039 13162 ft 339 kts 107°
2026-05-05 17:46 52.38513 3.60620 12637 ft 320 kts 107°
2026-05-05 17:47 52.37863 3.64014 12157 ft 307 kts 107°
2026-05-05 17:47 52.37237 3.67284 11663 ft 303 kts 107°
2026-05-05 17:47 52.36609 3.70561 11167 ft 301 kts 107°
2026-05-05 17:47 52.35984 3.73815 10721 ft 298 kts 107°
2026-05-05 17:48 52.35358 3.77073 10602 ft 301 kts 107°
2026-05-05 17:48 52.34727 3.80352 10598 ft 297 kts 107°
2026-05-05 17:48 52.34104 3.83584 10426 ft 297 kts 107°
2026-05-05 17:48 52.33483 3.86794 9916 ft 299 kts 106°
2026-05-05 17:49 52.32849 3.90069 9210 ft 304 kts 106°
2026-05-05 17:49 52.32215 3.93347 8522 ft 308 kts 106°
2026-05-05 17:49 52.31565 3.96697 7815 ft 311 kts 107°
2026-05-05 17:49 52.30906 4.00087 7120 ft 313 kts 106°
2026-05-05 17:50 52.30244 4.03486 6451 ft 314 kts 107°
2026-05-05 17:50 52.29555 4.06878 5771 ft 313 kts 117°
2026-05-05 17:50 52.28692 4.10128 5065 ft 310 kts 117°
2026-05-05 17:50 52.27878 4.13327 4627 ft 298 kts 115°
2026-05-05 17:51 52.27148 4.16375 4455 ft 276 kts 117°
2026-05-05 17:51 52.26483 4.19199 4346 ft 264 kts 118°
2026-05-05 17:51 52.25824 4.22015 4210 ft 267 kts 118°
2026-05-05 17:51 52.25198 4.24876 4080 ft 267 kts 116°
2026-05-05 17:52 52.24601 4.27734 3944 ft 265 kts 115°
2026-05-05 17:52 52.24023 4.30580 3830 ft 263 kts 115°
2026-05-05 17:52 52.23453 4.33420 3675 ft 264 kts 114°
2026-05-05 17:52 52.22893 4.36221 3549 ft 259 kts 115°
2026-05-05 17:53 52.22345 4.38971 3465 ft 244 kts 116°
2026-05-05 17:53 52.21856 4.41472 3381 ft 218 kts 119°
2026-05-05 17:53 52.21464 4.43674 3348 ft 188 kts 92°
2026-05-05 17:53 52.21343 4.45703 3235 ft 174 kts 89°
2026-05-05 17:54 52.21199 4.47619 3131 ft 169 kts 93°
2026-05-05 17:54 52.20974 4.49522 3056 ft 172 kts 97°
2026-05-05 17:54 52.20781 4.51417 2982 ft 168 kts 87°
2026-05-05 17:54 52.21052 4.53257 2928 ft 167 kts 60°
2026-05-05 17:55 52.21623 4.54794 2756 ft 151 kts 54°
2026-05-05 17:55 52.22152 4.56182 2546 ft 138 kts 55°
2026-05-05 17:55 52.22631 4.57436 2373 ft 126 kts 54°
2026-05-05 17:55 52.23085 4.58607 2191 ft 120 kts 53°
2026-05-05 17:56 52.23578 4.59865 2334 ft 153 kts 54°
2026-05-05 17:56 52.24167 4.61371 2803 ft 159 kts 54°
2026-05-05 17:56 52.24776 4.63030 2558 ft 184 kts 57°
2026-05-05 17:56 52.25421 4.64786 1902 ft 177 kts 57°
2026-05-05 17:57 52.26069 4.66466 1284 ft 170 kts 54°
2026-05-05 17:57 52.26674 4.68009 844 ft 152 kts 54°
2026-05-05 17:57 52.27189 4.69380 601 ft 134 kts 52°
2026-05-05 17:57 52.27670 4.70605 403 ft 123 kts 51°
2026-05-05 17:58 52.28147 4.71772 297 ft 126 kts 52°
2026-05-05 17:58 52.28620 4.72986 158 ft 127 kts 52°
2026-05-05 17:58 52.29082 4.74193 20 ft 123 kts 53°
2026-05-05 17:58 52.29446 4.75119 3 ft 60 kts 58°
2026-05-05 17:59 52.29621 4.75573 5 ft 33 kts 56°
2026-05-05 17:59 52.29788 4.75807 4 ft 31 kts 28°
2026-05-05 17:59 52.29841 4.75854 4 ft 0 kts 28°
2026-05-05 17:59 52.29842 4.75854 4 ft 0 kts 28°
2026-05-05 18:00 52.29842 4.75855 4 ft 1 kts 28°
2026-05-05 18:00 52.29844 4.75856 4 ft 0 kts 28°
2026-05-05 18:00 52.29846 4.75858 4 ft 2 kts 28°
2026-05-05 18:00 52.29867 4.75876 4 ft 5 kts 27°
2026-05-05 18:01 52.29880 4.75887 4 ft 0 kts 27°
2026-05-05 18:01 52.29883 4.75889 4 ft 2 kts 27°
2026-05-05 18:01 52.29883 4.75890 4 ft 0 kts 27°
2026-05-05 18:02 52.29898 4.75902 4 ft 10 kts 27°
2026-05-05 18:02 52.30003 4.76025 5 ft 23 kts 52°
2026-05-05 18:02 52.30093 4.76251 5 ft 24 kts 56°
2026-05-05 18:02 52.30188 4.76494 5 ft 26 kts 58°
2026-05-05 18:03 52.30277 4.76728 5 ft 23 kts 58°
2026-05-05 18:03 52.30366 4.76961 5 ft 25 kts 58°
2026-05-05 18:03 52.30462 4.77212 5 ft 27 kts 58°
2026-05-05 18:03 52.30554 4.77456 5 ft 21 kts 57°
2026-05-05 18:04 52.30638 4.77580 5 ft 14 kts 14°
2026-05-05 18:04 52.30732 4.77597 5 ft 12 kts
2026-05-05 18:04 52.30809 4.77602 5 ft 10 kts
2026-05-05 18:04 52.30876 4.77607 5 ft 10 kts
2026-05-05 18:05 52.30950 4.77615 5 ft 11 kts
2026-05-05 18:05 52.31018 4.77573 5 ft 10 kts 311°
2026-05-05 18:05 52.31054 4.77459 5 ft 12 kts 288°
2026-05-05 18:05 52.31073 4.77310 5 ft 15 kts 276°
2026-05-05 18:06 52.31080 4.77131 5 ft 13 kts 272°
2026-05-05 18:06 52.31081 4.77087 5 ft 11 kts 272°
2026-05-05 18:06 52.31135 4.76859 5 ft 14 kts 303°
2026-05-05 18:06 52.31164 4.76786 5 ft 0 kts 303°